Location: Miles
(41.4492°N, 81.6087°W)
Time: 02:00:45
(UTC+00:00)

Courier 1B Rocket - Pass Details

Date: 16 September 2024
Orbit: 920 x 1201 km, 28.3° (Epoch: 15 October)

Event Time Altitude Azimuth Distance (km) Brightness Sun altitude
Rises 22:14:10 0° 244° (WSW) 3,690 9.6 13.9°
Reaches altitude 10° 22:17:10 10° 233° (SW) 2,785 8.7 13.3°
Maximum altitude 22:22:44 27° 177° (S) 1,891 6.7 12.3°
Drops below altitude 10° 22:28:38 10° 123° (ESE) 2,960 7.1 11.2°
Sets 22:31:55 0° 112° (ESE) 3,964 7.6 10.6°
